Flag for United Kingdom Weather past 2 weeks in Dudley, England, United Kingdom

Now
59 °F

Passing clouds.


Feels Like: 58 °F
Forecast: 51 / 64 °F
Wind: 7 mph from South

Location: Birmingham / Airport

Current Time: Aug 29, 2015 at 9:12:57 AM

Latest Report: Aug 29, 2015 at 8:20 AM


Visibility: N/A

Pressure: 30.09 "Hg

Humidity: 82%

Dew point: 54 °F

Location of DudleyLocation

Historic Weather in Dudley — Graph

°F

Dudley temperature yesterday

Maximum temperature yesterday: 66 °F (at 3:20 PM)
Minimum temperature yesterday: 48 °F (at 1:50 AM)
Average temperature yesterday: 57 °F

Past Weeks' High & Low Weather Summary

 TemperatureHumidityPressure
High82 °F (Aug 22, 3:50 PM)100% (Aug 14, 7:20 AM)30.09 "Hg (Aug 14, 7:20 AM)
Low43 °F (Aug 16, 5:50 AM)43% (Aug 15, 5:50 PM)29.50 "Hg (Aug 23, 11:50 AM)
Average61 °F79%29.85 "Hg
* Reported Aug 14 7:20 AM — Aug 29 7:50 AM, Dudley, Weather by CustomWeather, © 2015

Note: Actual official high and low records may vary slightly from our data, if they occured in-between our weather recording intervals... More about our weather records

Advertising

Dudley weather history for previous 24 hours

 ConditionsComfort  
Time TempWeatherWind HumidityBarometerVisibility
7:50 AM
Sat, Aug 29
57 °FPassing clouds.6 mph88%30.09 "HgN/A
6:50 AM54 °FClear.6 mph94%30.09 "Hg10 mi
6:20 AM54 °FPassing clouds.6 mph94%30.07 "HgN/A
5:50 AM54 °FClear.6 mph94%30.07 "Hg10 mi
5:20 AM54 °FClear.6 mph94%30.07 "Hg10 mi
4:50 AM55 °FPassing clouds.6 mph88%30.07 "HgN/A
4:20 AM55 °FClear.7 mph88%30.07 "Hg10 mi
3:50 AM55 °FClear.6 mph88%30.07 "Hg10 mi
3:20 AM55 °FPassing clouds.5 mph88%30.07 "HgN/A
2:50 AM54 °FClear.6 mph94%30.07 "Hg10 mi
2:20 AM52 °FClear.6 mph94%30.07 "Hg10 mi
1:50 AM52 °FClear.5 mph94%30.07 "Hg10 mi
1:20 AM54 °FClear.3 mph88%30.07 "Hg10 mi
12:50 AM54 °FClear.5 mph88%30.07 "Hg10 mi
12:20 AM57 °FClear.3 mph77%30.07 "Hg10 mi
11:50 PM
Fri, Aug 28
55 °FClear.3 mph82%30.07 "Hg10 mi
11:20 PM55 °FClear.3 mph77%30.07 "Hg10 mi
10:50 PM57 °FClear.5 mph72%30.07 "Hg10 mi
10:20 PM57 °FPassing clouds.6 mph72%30.04 "HgN/A
9:50 PM59 °FPassing clouds.6 mph68%30.04 "HgN/A
9:20 PM57 °FClear.5 mph72%30.04 "Hg10 mi
8:50 PM59 °FSunny.3 mph68%30.04 "Hg10 mi
8:20 PM61 °FSunny.3 mph68%30.01 "Hg10 mi
7:50 PM63 °FPassing clouds.5 mph59%30.01 "HgN/A
7:20 PM63 °FPassing clouds.7 mph56%30.01 "HgN/A
6:50 PM64 °FPassing clouds.8 mph52%30.01 "HgN/A
6:20 PM64 °FPassing clouds.9 mph52%30.01 "HgN/A
5:50 PM66 °FScattered clouds.9 mph52%29.98 "HgN/A
5:20 PM66 °FScattered clouds.8 mph56%29.98 "HgN/A
4:50 PM66 °FScattered clouds.9 mph52%29.98 "HgN/A
4:20 PM66 °FScattered showers. Scattered clouds.9 mph52%29.98 "HgN/A
3:50 PM66 °FScattered clouds.10 mph52%29.98 "HgN/A
3:20 PM66 °FScattered clouds.9 mph56%29.98 "HgN/A
2:50 PM64 °FScattered clouds.9 mph56%29.98 "HgN/A
2:20 PM64 °FScattered clouds.12 mph60%29.98 "HgN/A
1:50 PM63 °FMild.12 mph64%29.98 "HgN/A
1:20 PM63 °FScattered showers. Scattered clouds.8 mph68%29.98 "HgN/A
12:50 PM59 °FMixture of precip. Scattered clouds.12 mph77%29.98 "HgN/A
12:20 PM59 °FScattered showers. Partly sunny.10 mph77%29.98 "HgN/A
11:50 AM63 °FPassing clouds.7 mph68%29.95 "HgN/A
11:20 AM59 °FBroken clouds.7 mph77%29.95 "HgN/A
10:50 AM61 °FScattered clouds.12 mph68%29.95 "HgN/A
10:20 AM61 °FPassing clouds.10 mph72%29.95 "HgN/A
9:50 AM59 °FPassing clouds.12 mph77%29.95 "HgN/A
9:20 AM59 °FPassing clouds.10 mph77%29.95 "HgN/A
Weather by CustomWeather, © 2015

See weather overviewHow to use our weather pages